Content
SEND FEEDBACK

Daily
Averages
Monthly
Summary
United States of America

RIFLE, COLORADO


Home > North America > United States > Colorado
Elevation: 6700 feet     Latitude: 40 00N     Longitude: 108 12W

WEATHER
 
SELECT A DAY
Number of Records: 174,619;   Date Range: 2/27/97 - 8/12/14
 
SHARE

PRINT THIS DATA

[ ← Previous Day ]
WEATHER ALMANAC - FEBRUARY 13, 2013
[ Next Day → ]
[ °C ]   °F
Weather ElementAverageHighLow
Temperature21.4 °F32 °F (3:53 pm)12 °F (9:53 pm)
Dewpoint13.3 °F17.1 °F (11:53 am)8.1 °F (8:53 pm)
Humidity71.7 %84 % (9:53 pm)52 % (3:53 pm)
Barometer30.30 in30.39 in (7:53 am)30.21 in (2:53 pm)
Wind Speed1.1 mph4.6 mph (1:53 am)
Weather ElementAverage
Visibility10 mi
Wind DirectionNNE (18.7 °)

Weather ElementTotal
Precipitation---
Heating Degree Days43 (Base 65)
Averaged from 23 records on February 13, 2013
WEATHER CONDITIONS BREAKOUT
WIND DIRECTION BREAKOUT
WEATHER BY HOUR - FEBRUARY 13, 2013
[ °C ]   °F
Local TimeTemperatureDewpointHumidityBarometerVisibilityWind DirectionWind SpeedGust SpeedPrecipitationEventsConditions
1:53 AM19.0 °F10.9 °F71 %30.34 in10.0 miNE (50°)4.6 mphOvercast
2:53 AM19.0 °F12.0 °F74 %30.32 in10.0 miCalmOvercast
3:53 AM19.0 °F12.9 °F77 %30.31 in10.0 miCalmOvercast
4:53 AM19.0 °F12.9 °F77 %30.31 in10.0 miCalmOvercast
5:53 AM19.0 °F14.0 °F81 %30.35 in10.0 miENE (60°)3.5 mphOvercast
6:53 AM19.9 °F14.0 °F78 %30.35 in10.0 miCalmOvercast
7:53 AM19.9 °F15.1 °F81 %30.39 in10.0 miCalmOvercast
8:53 AM21.0 °F15.1 °F78 %30.38 in10.0 miCalmOvercast
9:53 AM24.1 °F16.0 °F71 %30.35 in10.0 miNNE (30°)3.5 mphOvercast
10:53 AM27.0 °F16.0 °F63 %30.32 in10.0 miENE (60°)4.6 mphClear
11:53 AM28.0 °F17.1 °F63 %30.30 in10.0 miSSE (150°)4.6 mphPartly Cloudy
12:53 PM30.0 °F16.0 °F56 %30.25 in10.0 miCalmMostly Cloudy
1:53 PM30.0 °F16.0 °F56 %30.22 in10.0 miCalmPartly Cloudy
2:53 PM30.0 °F17.1 °F59 %30.21 in10.0 miCalmClear
3:53 PM32.0 °F16.0 °F52 %30.21 in10.0 miCalmClear
4:53 PM28.9 °F16.0 °F58 %30.22 in10.0 miCalmClear
5:53 PM19.9 °F12.0 °F71 %30.26 in10.0 miCalmClear
6:53 PM17.1 °F10.9 °F77 %30.28 in10.0 miCalmClear
7:53 PM14.0 °F9.0 °F80 %30.30 in10.0 miEast (80°)3.5 mphClear
8:53 PM12.9 °F8.1 °F81 %30.30 in10.0 miCalmClear
9:53 PM12.0 °F8.1 °F84 %30.30 in10.0 miCalmPartly Cloudy
10:53 PM15.1 °F10.0 °F80 %30.28 in10.0 miCalmClear
11:53 PM15.1 °F10.0 °F80 %30.27 in10.0 miCalmClear
Hourly data recorded from KEEO, located miles away from Rifle, Colorado







STORIES FROM OUR PARTNERS